Date,TemperatureHighF,TemperatureAvgF,TemperatureLowF,DewpointHighF,DewpointAvgF,DewpointLowF,HumidityHigh,HumidityAvg,HumidityLow,PressureMaxIn,PressureMinIn,WindSpeedMaxMPH,WindSpeedAvgMPH,GustSpeedMaxMPH,PrecipitationSumIn
2013-2-1,29.5,23.5,17.0,23.8,11.1,4.2,92,59,47,30.35,29.77,33,9,37,0.00
2013-2-2,27.7,20.5,10.3,23.7,13.0,4.0,87,73,57,30.36,29.98,12,2,18,0.00
2013-2-3,33.9,28.1,22.4,28.7,23.8,16.5,100,85,59,29.98,29.78,25,2,28,0.01
2013-2-4,37.5,30.2,23.8,21.0,16.2,11.5,64,56,46,30.06,29.84,21,4,30,0.00
2013-2-5,39.0,32.9,28.9,30.3,26.4,20.1,90,77,64,29.89,29.81,5,0,8,0.00
2013-2-6,41.1,36.0,27.7,32.9,27.3,20.1,90,71,58,30.30,29.89,22,6,24,0.00
2013-2-7,40.1,32.0,23.2,28.4,23.7,18.9,92,72,54,30.40,30.17,6,0,11,0.00
2013-2-8,40.7,34.9,30.6,35.9,30.1,22.3,94,83,63,30.16,29.73,22,4,33,0.14
2013-2-9,39.0,32.6,26.2,22.5,18.4,14.4,66,56,40,30.36,29.90,27,10,34,0.00
2013-2-10,44.1,32.6,17.2,25.0,18.3,12.8,86,58,35,30.43,30.17,9,1,15,0.00
2013-2-11,56.7,44.9,34.4,50.0,38.1,24.7,94,80,35,30.18,29.65,10,2,23,0.17
2013-2-12,55.2,46.0,33.9,31.7,27.7,23.4,73,49,35,29.94,29.79,18,4,30,0.00
2013-2-13,42.3,33.5,24.3,32.3,28.1,21.4,94,81,61,29.91,29.62,7,0,9,0.08
2013-2-14,48.7,37.8,29.9,32.5,28.8,24.6,93,71,48,29.97,29.74,12,2,18,0.09
2013-2-15,56.8,39.6,29.6,37.5,31.0,24.6,93,74,43,29.99,29.86,16,2,25,0.19
2013-2-16,36.6,32.7,28.2,31.7,25.3,15.5,94,75,51,29.97,29.82,18,4,24,0.00
2013-2-17,28.5,25.5,22.6,17.3,11.7,6.2,69,56,42,30.17,29.82,28,10,36,0.00
2013-2-18,44.6,30.0,19.0,15.8,11.0,6.7,60,46,29,30.35,30.10,13,3,20,0.00
2013-2-19,47.7,37.8,27.0,39.3,28.5,15.8,87,70,50,30.10,29.65,20,4,32,0.14
2013-2-20,35.9,30.0,23.0,23.4,14.6,8.8,61,52,47,30.13,29.81,29,11,32,0.00
2013-2-21,35.6,28.3,22.7,18.0,14.4,9.2,66,56,46,30.30,30.09,21,8,25,0.00
2013-2-22,31.9,29.3,25.3,28.0,22.8,16.8,89,77,64,30.34,30.16,7,1,12,0.04
2013-2-23,44.3,37.0,30.9,41.4,34.8,28.0,95,92,89,30.16,29.78,7,0,9,0.01
2013-2-24,47.7,39.6,30.5,38.5,29.3,17.9,93,69,43,30.09,29.76,23,7,30,0.00
2013-2-25,46.3,34.5,24.5,25.7,21.9,18.4,80,61,42,30.18,30.08,11,2,14,0.00
2013-2-26,40.4,33.6,24.0,38.8,29.8,20.3,95,86,72,30.17,29.58,11,1,17,0.96
2013-2-27,54.4,44.1,36.9,42.0,35.9,32.4,95,75,48,29.65,29.51,18,4,27,0.04
2013-2-28,43.8,40.5,35.7,35.3,29.7,25.8,82,66,54,29.69,29.59,18,6,23,0.00